Tracking 22441 objects as of 1-Mar-2021
HD Live streaming from Space Station
objects crossing your sky now

LEMUR 2 ROBMOORE

Track LEMUR 2 ROBMOORE now!
10-day predictions
LEMUR 2 ROBMOORE is classified as:


NORAD ID: 42754
Int'l Code: 2017-019D
Perigee: 468.2 km
Apogee: 480.9 km
Inclination: 51.6 °
Period: 93.9 minutes
Semi major axis: 6845 km
RCS: Unknown
Launch date: April 18, 2017
Source: United States (US)
Launch site: AIR FORCE EASTERN TEST RANGE (AFETR)
aabbcc
Your satellite tracking list
Your tracking list is empty




NASA's NSSDC Master Catalog

Two Line Element Set (TLE):
1 42754U 17019D   21060.14244456  .00003086  00000-0  10745-3 0  9996
2 42754  51.6404  16.8805 0009325 149.6738 210.4785 15.32816375208412
Source of the keplerian elements: AFSPC